Fort Indiantown Gap, PA

7:02 AM EDT on August 17, 2017 (GMT -0400)
Muir Army Air Field

Weather History for KMUI - June, 2013

Change the Weather History Date:

Tuesday, June 18, 2013

  Actual Average Record
Temperature  
Mean Temperature 69 °F -  
Max Temperature 79 °F 78 °F 90 °F (2007)
Min Temperature 59 °F 63 °F 44 °F (2002)
Cooling Degree Days 4    
Growing Degree Days 19 (Base 50)    
Moisture  
Dew Point 65 °F    
Average Humidity 81    
Maximum Humidity 100    
Minimum Humidity 57    
Precipitation  
Precipitation 0.00 in - - ()
Sea Level Pressure  
Sea Level Pressure 29.87 in    
Wind  
Wind Speed 1 mph (ESE)    
Max Wind Speed 6 mph    
Max Gust Speed -    
Visibility 10 miles    
Events Rain    
Averages and records for this station are not official NWS values.
T = Trace of Precipitation, MM = Missing Value Source: NWS Daily Summary

Daily Weather History Graph

Daily Weather History Graph

Search for Another Location

Airport or City:

Trip Planner

Search our weather history database for the weather conditions in past years. The results will help you decide how hot, cold, wet, or windy it might be!

Date:

Astronomy

Jun. 18, 2013 Rise Set
Actual Time 5:35 AM EDT 8:39 PM EDT
Civil Twilight 5:02 AM EDT 9:12 PM EDT
Nautical Twilight 4:20 AM EDT 9:54 PM EDT
Astronomical Twilight 3:30 AM EDT 10:44 PM EDT
Moon 3:20 PM EDT (6/18) 1:43 AM EDT (6/18)
Length of Visible Light 16h 10m
Length of Day
15h 03m
Waxing Gibbous, 70% of the Moon is Illuminated
Jun 18
Waxing Gibbous
Jun 23
Full
Jun 30
Last Quarter
Jul 8
New
Jul 15
First Quarter

Hourly Weather History & Observations

Time (EDT) Temp. Dew Point Humidity Pressure Visibility Wind Dir Wind Speed Gust Speed Precip Events Conditions
12:58 AM 62.8 °F 58.6 °F 86% 29.92 in 10.0 mi Calm Calm - N/A   Clear
1:58 AM 62.2 °F 58.3 °F 87% 29.91 in 10.0 mi Calm Calm - N/A   Clear
2:58 AM 60.8 °F 58.3 °F 91% 29.90 in 10.0 mi Calm Calm - N/A   Clear
3:58 AM 59.7 °F 59.0 °F 97% 29.89 in 10.0 mi Calm Calm - N/A   Clear
4:58 AM 59.2 °F 58.8 °F 99% 29.89 in 10.0 mi Calm Calm - N/A   Clear
5:58 AM 60.3 °F 60.1 °F 99% 29.89 in 10.0 mi Calm Calm - N/A   Clear
6:58 AM 62.2 °F 61.9 °F 99% 29.89 in 7.0 mi Calm Calm - N/A   Clear
7:58 AM 66.9 °F 65.5 °F 95% 29.90 in 10.0 mi Calm Calm - N/A   Scattered Clouds
8:58 AM 71.8 °F 65.8 °F 81% 29.90 in 10.0 mi Calm Calm - N/A   Scattered Clouds
9:58 AM 75.0 °F 66.0 °F 73% 29.89 in 10.0 mi Calm Calm - N/A   Mostly Cloudy
10:58 AM 76.8 °F 66.7 °F 71% 29.88 in 10.0 mi NE 2.3 mph - N/A   Mostly Cloudy
11:53 AM 77.0 °F 66.2 °F 69% 29.86 in 10.0 mi Calm Calm - N/A Rain Light Rain
11:55 AM 77.0 °F 66.2 °F 69% 29.86 in 10.0 mi Calm Calm - N/A   Partly Cloudy
11:58 AM 77.5 °F 66.2 °F 68% 29.86 in 10.0 mi Calm Calm - 0.00 in   Partly Cloudy
12:58 PM 78.3 °F 65.7 °F 65% 29.86 in 10.0 mi Calm Calm - N/A   Clear
1:29 PM 78.8 °F 62.6 °F 57% 29.86 in 10.0 mi Calm Calm - N/A Rain Light Rain
1:38 PM 78.8 °F 64.4 °F 61% 29.86 in 10.0 mi Calm Calm - N/A   Partly Cloudy
1:58 PM 79.0 °F 62.8 °F 57% 29.85 in 10.0 mi Calm Calm - 0.00 in   Partly Cloudy
1:59 PM 78.8 °F 64.4 °F 61% 29.85 in 10.0 mi Calm Calm - N/A Rain Light Rain
2:08 PM 78.8 °F 66.2 °F 65% 29.85 in 10.0 mi Calm Calm - N/A   Clear
2:58 PM 75.4 °F 68.4 °F 79% 29.83 in 10.0 mi WSW 2.3 mph - 0.00 in   Partly Cloudy
3:58 PM 75.0 °F 68.2 °F 79% 29.83 in 10.0 mi SSE 3.5 mph - N/A   Partly Cloudy
4:58 PM 75.0 °F 67.3 °F 77% 29.83 in 10.0 mi East 3.5 mph - N/A   Partly Cloudy
5:58 PM 74.5 °F 68.4 °F 81% 29.82 in 10.0 mi ESE 3.5 mph - N/A   Clear
6:30 PM 73.4 °F 68.0 °F 83% 29.82 in 10.0 mi SSE 5.8 mph - N/A   Mostly Cloudy
6:46 PM 71.6 °F 68.0 °F 88% 29.82 in 10.0 mi SSE 2.3 mph - N/A   Mostly Cloudy
6:47 PM 71.6 °F 66.2 °F 83% 29.82 in 10.0 mi NE 1.2 mph - N/A Rain Light Rain
6:58 PM 72.0 °F 67.5 °F 86% 29.83 in 10.0 mi ENE 1.2 mph - 0.00 in Rain Light Rain
7:08 PM 71.6 °F 66.2 °F 83% 29.83 in 10.0 mi Calm Calm - N/A   Scattered Clouds
7:58 PM 71.6 °F 66.9 °F 85% 29.85 in 10.0 mi Calm Calm - 0.00 in   Overcast
8:58 PM 68.7 °F 66.2 °F 92% 29.86 in 10.0 mi Calm Calm - N/A   Scattered Clouds
9:58 PM 66.4 °F 66.0 °F 99% 29.88 in 7.0 mi Calm Calm - N/A   Mostly Cloudy
10:34 PM 68.0 °F 68.0 °F 100% 29.90 in 10.0 mi Calm Calm - N/A   Overcast
10:58 PM 68.0 °F 68.0 °F 100% 29.91 in 10.0 mi Calm Calm - N/A   Overcast
11:58 PM 68.4 °F 61.2 °F 78% 29.92 in 10.0 mi NNE 2.3 mph - N/A   Mostly Cloudy